[[{"header":{"parameterUnit":"m.s-1","parameterCategory":1,"la1":30.2991,"la2":30.254,"lo1":-89.0895,"lo2":-89.0444,"dy":0.0017,"dx":0.0017,"nx":28,"ny":28,"refTime":"2025-02-04T09:00:00:Z","depth":0,"parameterNumber":2,"parameterNumberName":"U-component_of_WINDS"},"data":[0,0,0,0,0,0,0,0,0,0,0,0,0,0,0,0,0,0,0,0,0,0,0,0,0,0,0,0,0,0,0,0,0,0,0,0,0,0,0,0,0,0,0,0,0,0,0,0,0,0,0,0,0,0,0,0,0,0,-1.2265,-1.2265,0,-1.2241,-1.2241,-1.2241,-1.2192,-1.2191,-1.219,-1.2189,-1.2166,-1.2167,-1.2167,0,0,0,0,0,0,0,0,0,0,0,0,0,-1.227,-1.227,-1.2265,-1.2265,-1.2264,-1.2241,-1.2241,-1.2241,-1.2192,-1.2191,-1.219,-1.2189,-1.2166,-1.2167,-1.2167,0,0,0,0,0,0,0,0,0,0,0,0,0,-1.2259,-1.227,-1.2265,-1.2237,-1.2235,-1.2241,-1.2241,-1.224,-1.2193,-1.2191,-1.219,-1.2188,-1.2166,-1.2167,-1.2167,-1.2199,0,0,-1.2168,-1.2169,0,0,0,0,0,0,0,0,-1.226,-1.2259,-1.2242,-1.2239,-1.2236,-1.2218,-1.2234,-1.2227,-1.2193,-1.2209,-1.2189,-1.2188,-1.2185,-1.2184,-1.2182,-1.2198,-1.2197,-1.2168,-1.2169,-1.2169,-1.2169,0,0,0,0,0,0,0,-1.2261,-1.226,-1.2256,-1.2242,-1.2238,-1.2227,-1.2224,-1.2233,-1.2205,-1.2207,-1.2204,-1.2201,-1.2183,-1.2182,-1.2182,-1.2197,-1.2168,-1.2169,-1.2169,-1.2169,-1.2237,-1.2238,0,0,0,0,0,0,-1.2265,-1.2261,-1.2256,-1.2255,-1.2245,-1.2228,-1.2224,-1.2225,-1.2205,-1.22,-1.2203,-1.2199,-1.2182,-1.2181,-1.2181,-1.2216,-1.2169,-1.2169,-1.217,-1.2235,-1.2237,-1.2239,0,0,0,0,0,0,-1.2266,-1.2265,-1.2257,-1.2257,-1.2255,-1.2229,-1.2231,-1.2226,-1.2225,-1.2202,-1.2197,-1.2207,-1.2181,-1.218,-1.2195,-1.2215,-1.217,-1.217,-1.2234,-1.2236,-1.2238,-1.2288,0,0,0,0,0,0,-1.2266,-1.2266,-1.2277,-1.2257,-1.2255,-1.2271,-1.2232,-1.2226,-1.2225,-1.2221,-1.2204,-1.22,-1.218,-1.2194,-1.2195,-1.2215,-1.217,-1.2232,-1.2235,-1.2237,-1.2285,-1.2292,-1.2298,0,0,0,0,0,-1.2266,-1.2293,-1.2278,-1.2278,-1.2269,-1.2273,-1.2271,-1.2247,-1.2227,-1.2239,-1.2224,-1.22,-1.2213,-1.2196,-1.2197,-1.2217,-1.223,-1.2234,-1.2237,-1.2282,-1.2291,-1.2298,0,0,0,0,0,0,-1.2316,-1.2289,-1.2273,-1.2294,-1.2286,-1.2264,-1.2278,-1.2258,-1.2255,-1.2251,-1.2222,-1.2219,-1.2237,-1.2228,-1.2211,-1.2247,-1.2218,-1.2222,-1.2251,-1.226,-1.2266,-1.2268,-1.2171,0,0,0,0,0,-1.2329,-1.2334,-1.2311,-1.2331,-1.2328,-1.2304,-1.2305,-1.2287,-1.2278,-1.2274,-1.226,-1.2253,-1.2255,-1.2257,-1.2258,-1.2284,-1.2279,-1.2298,-1.2304,-1.231,-1.2314,-1.2327,-1.2334,-1.225,-1.225,-1.225,0,0,-1.2357,-1.2343,-1.2348,-1.2341,-1.2333,-1.2339,-1.2302,-1.2309,-1.2314,-1.2276,-1.2288,-1.2278,-1.2268,-1.2288,-1.2296,-1.2281,-1.2336,-1.2315,-1.2319,-1.2319,-1.2331,-1.2339,-1.2346,-1.2253,-1.2252,-1.2252,0,0,-1.241,-1.24,-1.2416,-1.2408,-1.2396,-1.238,-1.2384,-1.2366,-1.2357,-1.237,-1.2341,-1.2346,-1.235,-1.2344,-1.2341,-1.2393,-1.2371,-1.2394,-1.2429,-1.2442,-1.2449,-1.2455,-1.2473,-1.248,-1.2397,-1.2398,-1.2398,0,-1.2446,-1.2453,-1.2427,-1.2436,-1.2434,-1.24,-1.2416,-1.241,-1.2399,-1.2399,-1.2382,-1.2386,-1.2377,-1.2395,-1.2408,-1.2407,-1.2411,-1.2395,-1.245,-1.2455,-1.246,-1.2477,-1.2484,-1.24,-1.24,-1.24,-1.24,0,-1.2498,-1.2504,-1.2518,-1.2507,-1.2507,-1.252,-1.2496,-1.2499,-1.2482,-1.2467,-1.248,-1.2468,-1.2465,-1.2469,-1.2452,-1.2485,-1.2476,-1.2455,-1.2425,-1.2472,-1.2487,-1.2493,-1.2405,-1.2403,-1.2403,-1.2402,0,0,-1.2581,-1.2556,-1.2562,-1.2557,-1.2541,-1.2545,-1.2557,-1.2554,-1.2557,-1.2551,-1.256,-1.2564,-1.2545,-1.2542,-1.2524,-1.2536,-1.2577,-1.2513,-1.2513,-1.2525,-1.2612,-1.2628,-1.2636,-1.2563,-1.2564,-1.2565,-1.2613,0,-1.263,-1.2648,-1.2625,-1.2648,-1.2653,-1.262,-1.263,-1.2622,-1.2609,-1.2612,-1.2598,-1.2602,-1.2576,-1.2574,-1.2584,-1.257,-1.2594,-1.2566,-1.2571,-1.2571,-1.2574,-1.2644,-1.266,-1.2707,-1.2619,-1.262,-1.2621,0,-1.269,-1.2686,-1.271,-1.2692,-1.2694,-1.2703,-1.2699,-1.2702,-1.2692,-1.2682,-1.2679,-1.2657,-1.2668,-1.264,-1.2654,-1.2635,-1.2636,-1.2629,-1.2631,-1.263,-1.2599,-1.2645,-1.2721,-1.2728,-1.263,-1.2629,-1.2629,0,-1.2748,-1.2749,-1.2763,-1.276,-1.274,-1.2747,-1.274,-1.2728,-1.2728,-1.2724,-1.2724,-1.2722,-1.2721,-1.272,-1.2699,-1.268,-1.2716,-1.2686,-1.2708,-1.2709,-1.2717,-1.2716,-1.2794,-1.2718,-1.2718,-1.2718,-1.2717,0,-1.2805,-1.2821,-1.2789,-1.2797,-1.2814,-1.2787,-1.2805,-1.2794,-1.2784,-1.279,-1.2763,-1.2769,-1.2741,-1.2745,-1.2728,-1.2743,-1.2742,-1.2735,-1.273,-1.2737,-1.2738,-1.2737,-1.2733,-1.2719,-1.2719,-1.2719,-1.2718,0,-1.2873,-1.2852,-1.2865,-1.2845,-1.2841,-1.2854,-1.2837,-1.2845,-1.283,-1.2838,-1.2839,-1.2816,-1.2819,-1.2798,-1.2797,-1.2786,-1.2808,-1.2798,-1.2812,-1.2808,-1.2832,-1.283,-1.2911,-1.292,-1.2839,-1.2839,-1.284,0,-1.2911,-1.2922,-1.2903,-1.2905,-1.2899,-1.2902,-1.2902,-1.2876,-1.2877,-1.2867,-1.2876,-1.2876,-1.2875,-1.2882,-1.2865,-1.2865,-1.2854,-1.2883,-1.2854,-1.2861,-1.2854,-1.2854,-1.2855,-1.2889,-1.289,-1.2891,-1.2891,0,-1.298,-1.2969,-1.2969,-1.2966,-1.2966,-1.2962,-1.2957,-1.296,-1.2933,-1.2935,-1.2937,-1.2937,-1.2936,-1.2937,-1.2933,-1.2925,-1.2904,-1.29,-1.2905,-1.2912,-1.292,-1.2916,-1.2828,-1.2899,-1.2898,-1.2897,-1.2897,-1.2897,-1.3033,-1.3042,-1.303,-1.3031,-1.3024,-1.302,-1.3026,-1.3012,-1.3013,-1.301,-1.2995,-1.3,-1.299,-1.2983,-1.2977,-1.2981,-1.2968,-1.2975,-1.2977,-1.2979,-1.2983,-1.2919,-1.2981,-1.298,-1.298,-1.298,-1.298,0,-1.3101,-1.3092,-1.3093,-1.3086,-1.3087,-1.3067,-1.306,-1.3062,-1.3067,-1.3059,-1.3059,-1.3061,-1.3062,-1.3046,-1.3045,-1.3051,-1.3042,-1.3052,-1.3051,-1.305,-1.2995,-1.2991,-1.306,-1.306,-1.306,-1.306,-1.306,-1.306,-1.3136,-1.3149,-1.3137,-1.3146,-1.3137,-1.3142,-1.3139,-1.3135,-1.3129,-1.3133,-1.3134,-1.3123,-1.3112,-1.311,-1.311,-1.3105,-1.3106,-1.312,-1.3112,-1.3061,-1.3054,-1.3046,-1.3042,-1.312,-1.312,-1.3166,-1.3166,-1.3167]},{"header":{"parameterUnit":"m.s-1","parameterCategory":1,"la1":30.2991,"la2":30.254,"lo1":-89.0895,"lo2":-89.0444,"dy":0.0017,"dx":0.0017,"nx":28,"ny":28,"refTime":"2025-02-04T09:00:00:Z","depth":0,"parameterNumber":3,"parameterNumberName":"V-component_of_WINDS"},"data":[0,0,0,0,0,0,0,0,0,0,0,0,0,0,0,0,0,0,0,0,0,0,0,0,0,0,0,0,0,0,0,0,0,0,0,0,0,0,0,0,0,0,0,0,0,0,0,0,0,0,0,0,0,0,0,0,0,0,1.833,1.833,0,1.8387,1.8387,1.8388,1.8443,1.8443,1.8444,1.8445,1.85,1.85,1.8501,0,0,0,0,0,0,0,0,0,0,0,0,0,1.8266,1.8267,1.8329,1.833,1.8331,1.8387,1.8387,1.8388,1.8443,1.8444,1.8444,1.8445,1.8499,1.85,1.8501,0,0,0,0,0,0,0,0,0,0,0,0,0,1.8305,1.8267,1.8329,1.8365,1.8369,1.8386,1.8387,1.8388,1.8442,1.8444,1.8445,1.8446,1.8499,1.85,1.8501,1.8487,0,0,1.8505,1.8505,0,0,0,0,0,0,0,0,1.8303,1.8307,1.8359,1.8363,1.8367,1.8409,1.8385,1.8421,1.8442,1.8414,1.8445,1.8446,1.8468,1.8472,1.848,1.849,1.8492,1.8505,1.8506,1.8506,1.8507,0,0,0,0,0,0,0,1.83,1.8305,1.8352,1.836,1.8364,1.8378,1.8384,1.8392,1.8434,1.8417,1.8421,1.8427,1.8471,1.8479,1.8482,1.8493,1.8505,1.8506,1.8507,1.8507,1.8496,1.8495,0,0,0,0,0,0,1.8292,1.8303,1.835,1.8354,1.8337,1.8378,1.8385,1.8394,1.8435,1.8442,1.8426,1.843,1.8476,1.848,1.8484,1.8472,1.8506,1.8507,1.8508,1.8497,1.8496,1.8495,0,0,0,0,0,0,1.8291,1.8296,1.8348,1.8329,1.8337,1.8378,1.8387,1.8395,1.8403,1.8442,1.8449,1.8427,1.8477,1.8482,1.8487,1.8475,1.8508,1.8509,1.8498,1.8497,1.8495,1.8447,0,0,0,0,0,0,1.8289,1.8295,1.829,1.8329,1.8338,1.835,1.8386,1.8395,1.8406,1.8411,1.8445,1.8451,1.8479,1.8485,1.8488,1.8477,1.851,1.85,1.8498,1.8496,1.845,1.8444,1.8439,0,0,0,0,0,1.8286,1.8273,1.829,1.8295,1.8333,1.8349,1.8354,1.8387,1.8404,1.84,1.8425,1.845,1.8475,1.8485,1.8489,1.8478,1.8501,1.8498,1.8496,1.8452,1.8445,1.8439,0,0,0,0,0,0,1.823,1.8279,1.8298,1.8297,1.8319,1.8359,1.8354,1.8378,1.8394,1.8398,1.8437,1.8444,1.8445,1.8462,1.8471,1.8468,1.8492,1.849,1.8457,1.845,1.8445,1.8441,1.8511,0,0,0,0,0,1.8218,1.8228,1.8269,1.8264,1.8275,1.8312,1.8321,1.8344,1.8368,1.8377,1.8402,1.8424,1.8437,1.8444,1.8458,1.8452,1.8461,1.8447,1.8441,1.8437,1.8435,1.8435,1.843,1.8488,1.8488,1.8488,0,0,1.8192,1.822,1.8223,1.8254,1.8274,1.8283,1.832,1.8327,1.8335,1.8378,1.8385,1.8404,1.843,1.843,1.8431,1.8444,1.8421,1.8434,1.843,1.8431,1.8432,1.8427,1.8422,1.8486,1.8486,1.8487,0,0,1.815,1.8172,1.8172,1.8191,1.8222,1.8247,1.8247,1.8284,1.8299,1.8307,1.834,1.8349,1.837,1.8388,1.84,1.8368,1.8392,1.8371,1.8343,1.8342,1.8338,1.8334,1.8324,1.832,1.8369,1.8369,1.8369,0,1.8114,1.8131,1.8168,1.8175,1.8188,1.8229,1.8229,1.8246,1.8278,1.8286,1.8301,1.833,1.835,1.8356,1.8349,1.8356,1.8358,1.8367,1.8336,1.8332,1.8329,1.832,1.8316,1.8366,1.8367,1.8367,1.8367,0,1.8086,1.8096,1.8092,1.8125,1.8138,1.8141,1.8178,1.8186,1.8209,1.8233,1.8241,1.8268,1.8289,1.8292,1.8313,1.8301,1.8308,1.8328,1.8353,1.832,1.8312,1.8309,1.8363,1.8364,1.8364,1.8365,0,0,1.8009,1.8064,1.8062,1.8079,1.8116,1.8125,1.8131,1.8153,1.816,1.8181,1.8187,1.8205,1.8225,1.8239,1.8263,1.8262,1.8237,1.8283,1.8284,1.8275,1.8227,1.8212,1.8208,1.8254,1.8253,1.8253,1.8225,0,1.7974,1.7988,1.8023,1.8026,1.8037,1.8078,1.8083,1.8106,1.8129,1.8142,1.8167,1.818,1.8204,1.8213,1.8214,1.824,1.8228,1.8242,1.826,1.826,1.8253,1.8203,1.8187,1.816,1.8222,1.8222,1.8221,0,1.7935,1.7957,1.7962,1.8001,1.8007,1.8011,1.8036,1.8047,1.8075,1.8092,1.8108,1.8136,1.8144,1.8167,1.8179,1.8188,1.8197,1.8211,1.8211,1.8214,1.8239,1.8206,1.8152,1.8149,1.8217,1.8217,1.8217,0,1.7881,1.7911,1.7918,1.7931,1.7976,1.7979,1.7998,1.8027,1.8039,1.806,1.8068,1.8089,1.81,1.8116,1.8148,1.8162,1.8157,1.8183,1.8172,1.8171,1.8169,1.8169,1.8117,1.8173,1.8173,1.8173,1.8173,0,1.7839,1.7841,1.7895,1.7899,1.7903,1.7943,1.7944,1.7967,1.7993,1.8002,1.8038,1.8046,1.8088,1.8101,1.8126,1.8133,1.8138,1.8152,1.8159,1.8149,1.8148,1.8156,1.8159,1.8172,1.8173,1.8173,1.8173,0,1.7779,1.7815,1.7826,1.787,1.7881,1.7881,1.7918,1.7924,1.795,1.7962,1.7967,1.8007,1.8024,1.8058,1.8084,1.8101,1.8103,1.8114,1.8094,1.8098,1.8086,1.8087,1.8038,1.8034,1.8092,1.8091,1.8091,0,1.775,1.7753,1.7798,1.7808,1.7826,1.7841,1.7854,1.7894,1.7906,1.7939,1.7941,1.7962,1.798,1.8006,1.8037,1.8057,1.807,1.8052,1.8073,1.8064,1.8071,1.8071,1.8072,1.8047,1.8046,1.8045,1.8045,0,1.7696,1.7715,1.7733,1.7759,1.7774,1.7795,1.7819,1.7824,1.7869,1.7881,1.79,1.7915,1.7943,1.7963,1.7989,1.8007,1.8033,1.8038,1.8037,1.8027,1.8016,1.8023,1.8082,1.8039,1.8039,1.804,1.804,1.804,1.7652,1.7657,1.769,1.771,1.7732,1.7754,1.7762,1.779,1.7808,1.7835,1.7857,1.7874,1.7904,1.7941,1.7959,1.7973,1.7985,1.7983,1.7982,1.7982,1.7978,1.8013,1.7977,1.7977,1.7978,1.7978,1.7978,0,1.7601,1.7625,1.7643,1.7676,1.7692,1.7717,1.7744,1.7756,1.7771,1.7797,1.7816,1.7838,1.7859,1.7892,1.7915,1.792,1.7933,1.7925,1.7925,1.7929,1.7965,1.7965,1.7914,1.7914,1.7914,1.7914,1.7914,1.7914,1.7576,1.7587,1.761,1.7632,1.7656,1.7675,1.7689,1.7709,1.773,1.7755,1.7773,1.7795,1.7824,1.785,1.787,1.7879,1.7886,1.7875,1.7888,1.792,1.7926,1.7932,1.7932,1.7876,1.7875,1.7851,1.7851,1.785]}]]